| time (UTC) | temp C | wind direction | speed KPH | gust KPH | rain 1hr cm | rain 24hr cm | rain mn cm | humidity % | barometer mb |
| 20260503232439 | 19 | 202 | 0.0 | 8.0 | 0.00 | 0.00 | 0.00 | 38 | 1004.1 |
| 20260503232039 | 19 | 96 | 0.0 | 6.4 | 0.00 | 0.00 | 0.00 | 37 | 1004.2 |
| 20260503231439 | 19 | 165 | 0.0 | 8.0 | 0.00 | 0.00 | 0.00 | 37 | 1004.2 |
| 20260503230939 | 19 | 304 | 1.6 | 8.0 | 0.00 | 0.00 | 0.00 | 38 | 1004.2 |
| 20260503230509 | 19 | 273 | 1.6 | 8.0 | 0.00 | 0.00 | 0.00 | 37 | 1004.3 |
| 20260503225939 | 19 | 254 | 4.8 | 8.0 | 0.00 | 0.00 | 0.00 | 37 | 1004.3 |
| 20260503225439 | 19 | 205 | 1.6 | 8.0 | 0.00 | 0.00 | 0.00 | 36 | 1004.3 |
| 20260503224938 | 19 | 221 | 1.6 | 8.0 | 0.00 | 0.00 | 0.00 | 37 | 1004.2 |
| 20260503224438 | 19 | 223 | 0.0 | 8.0 | 0.00 | 0.00 | 0.00 | 37 | 1004.2 |
| 20260503223938 | 19 | 217 | 6.4 | 6.4 | 0.00 | 0.00 | 0.00 | 37 | 1004.2 |
| 20260503223508 | 19 | 286 | 6.4 | 9.7 | 0.00 | 0.00 | 0.00 | 38 | 1004.4 |
| 20260503222938 | 19 | 204 | 3.2 | 9.7 | 0.00 | 0.00 | 0.00 | 37 | 1004.3 |
| 20260503222438 | 19 | 223 | 1.6 | 17.7 | 0.00 | 0.00 | 0.00 | 38 | 1004.5 |
| 20260503221938 | 19 | 291 | 1.6 | 17.7 | 0.00 | 0.00 | 0.00 | 37 | 1004.5 |
| 20260503221438 | 19 | 289 | 3.2 | 14.5 | 0.00 | 0.00 | 0.00 | 37 | 1004.5 |
| 20260503220938 | 19 | 275 | 4.8 | 14.5 | 0.00 | 0.00 | 0.00 | 37 | 1004.6 |
| 20260503220508 | 19 | 285 | 4.8 | 9.7 | 0.00 | 0.00 | 0.00 | 36 | 1004.6 |
| 20260503215938 | 19 | 187 | 0.0 | 8.0 | 0.00 | 0.00 | 0.00 | 36 | 1004.6 |
| 20260503214938 | 19 | 303 | 1.6 | 11.3 | 0.00 | 0.00 | 0.00 | 36 | 1004.7 |
| 20260503214537 | 20 | 169 | 3.2 | 20.9 | 0.00 | 0.00 | 0.00 | 37 | 1004.5 |
| 20260503213938 | 19 | 239 | 1.6 | 20.9 | 0.00 | 0.00 | 0.00 | 36 | 1004.7 |
| 20260503213438 | 19 | 90 | 4.8 | 11.3 | 0.00 | 0.00 | 0.00 | 36 | 1004.9 |
| 20260503212938 | 19 | 323 | 1.6 | 9.7 | 0.00 | 0.00 | 0.00 | 37 | 1004.9 |
| 20260503212437 | 19 | 276 | 3.2 | 11.3 | 0.00 | 0.00 | 0.00 | 35 | 1004.9 |
| 20260503211937 | 19 | 219 | 1.6 | 16.1 | 0.00 | 0.00 | 0.00 | 37 | 1005.1 |
| 20260503210938 | 20 | 261 | 0.0 | 17.7 | 0.00 | 0.00 | 0.00 | 35 | 1005.0 |
| 20260503210507 | 19 | 305 | 3.2 | 17.7 | 0.00 | 0.00 | 0.00 | 37 | 1005.1 |
| 20260503210037 | 19 | 304 | 4.8 | 11.3 | 0.00 | 0.00 | 0.00 | 37 | 1005.1 |
| 20260503205438 | 20 | 247 | 1.6 | 12.9 | 0.00 | 0.00 | 0.00 | 38 | 1005.3 |
| 20260503204937 | 19 | 201 | 1.6 | 12.9 | 0.00 | 0.00 | 0.00 | 39 | 1005.3 |
| 20260503204537 | 18 | 202 | 0.0 | 12.9 | 0.00 | 0.00 | 0.00 | 39 | 1005.4 |
| 20260503203937 | 18 | 298 | 0.0 | 12.9 | 0.00 | 0.00 | 0.00 | 41 | 1005.6 |
| 20260503203437 | 18 | 181 | 0.0 | 24.1 | 0.00 | 0.00 | 0.00 | 42 | 1005.6 |
| 20260503202937 | 18 | 248 | 3.2 | 24.1 | 0.00 | 0.00 | 0.00 | 44 | 1005.7 |
| 20260503202437 | 18 | 294 | 0.0 | 14.5 | 0.00 | 0.00 | 0.00 | 43 | 1005.8 |
| 20260503202007 | 17 | 109 | 3.2 | 19.3 | 0.00 | 0.00 | 0.00 | 45 | 1006.1 |
| 20260503201507 | 17 | 219 | 1.6 | 29.0 | 0.00 | 0.00 | 0.00 | 43 | 1006.2 |
| 20260503201007 | 17 | 171 | 0.0 | 29.0 | 0.00 | 0.00 | 0.00 | 43 | 1006.4 |
| 20260503200507 | 18 | 219 | 0.0 | 22.5 | 0.00 | 0.00 | 0.00 | 43 | 1006.5 |
| 20260503200007 | 18 | 300 | 6.4 | 14.5 | 0.00 | 0.00 | 0.00 | 41 | 1006.5 |
| 20260503195506 | 18 | 138 | 4.8 | 16.1 | 0.00 | 0.00 | 0.00 | 41 | 1006.6 |
| 20260503195007 | 18 | 253 | 6.4 | 16.1 | 0.00 | 0.00 | 0.00 | 38 | 1006.6 |
| 20260503194507 | 18 | 215 | 3.2 | 24.1 | 0.00 | 0.00 | 0.00 | 37 | 1006.7 |
| 20260503194007 | 18 | 271 | 4.8 | 24.1 | 0.00 | 0.00 | 0.00 | 36 | 1006.6 |
| 20260503193507 | 19 | 256 | 4.8 | 14.5 | 0.00 | 0.00 | 0.00 | 37 | 1006.6 |
| 20260503193006 | 18 | 310 | 4.8 | 20.9 | 0.00 | 0.00 | 0.00 | 36 | 1006.6 |
| 20260503192506 | 19 | 223 | 9.7 | 20.9 | 0.00 | 0.00 | 0.00 | 35 | 1006.8 |
| 20260503192006 | 19 | 200 | 20.9 | 20.9 | 0.00 | 0.00 | 0.00 | 34 | 1006.7 |
| 20260503191506 | 19 | 271 | 1.6 | 17.7 | 0.00 | 0.00 | 0.00 | 35 | 1006.7 |
| 20260503191006 | 19 | 297 | 0.0 | 25.7 | 0.00 | 0.00 | 0.00 | 36 | 1006.7 |
| 20260503190507 | 18 | 238 | 6.4 | 25.7 | 0.00 | 0.00 | 0.00 | 34 | 1006.9 |
| 20260503190007 | 19 | 227 | 1.6 | 20.9 | 0.00 | 0.00 | 0.00 | 34 | 1006.9 |
| 20260503185506 | 19 | 227 | 4.8 | 20.9 | 0.00 | 0.00 | 0.00 | 35 | 1006.7 |
| 20260503185006 | 18 | 329 | 0.0 | 16.1 | 0.00 | 0.00 | 0.00 | 35 | 1007.0 |
| 20260503184506 | 18 | 234 | 0.0 | 16.1 | 0.00 | 0.00 | 0.00 | 36 | 1006.9 |
| 20260503184036 | 18 | 236 | 4.8 | 14.5 | 0.00 | 0.00 | 0.00 | 38 | 1007.0 |
| 20260503183507 | 18 | 259 | 4.8 | 16.1 | 0.00 | 0.00 | 0.00 | 38 | 1007.2 |
| 20260503183006 | 18 | 203 | 0.0 | 16.1 | 0.00 | 0.00 | 0.00 | 42 | 1007.1 |
| 20260503182506 | 18 | 208 | 8.0 | 25.7 | 0.00 | 0.00 | 0.00 | 40 | 1007.3 |
| 20260503182006 | 17 | 219 | 3.2 | 25.7 | 0.00 | 0.00 | 0.00 | 40 | 1007.3 |
| 20260503181506 | 17 | 221 | 3.2 | 16.1 | 0.00 | 0.00 | 0.00 | 44 | 1007.5 |
| 20260503181006 | 17 | 223 | 3.2 | 14.5 | 0.00 | 0.00 | 0.00 | 44 | 1007.4 |
| 20260503180505 | 17 | 277 | 1.6 | 14.5 | 0.00 | 0.00 | 0.00 | 44 | 1007.6 |
| 20260503180005 | 17 | 250 | 0.0 | 9.7 | 0.00 | 0.00 | 0.00 | 43 | 1007.5 |
| 20260503175505 | 16 | 173 | 1.6 | 14.5 | 0.00 | 0.00 | 0.00 | 46 | 1007.6 |
| 20260503175005 | 16 | 211 | 0.0 | 14.5 | 0.00 | 0.00 | 0.00 | 46 | 1007.7 |
| 20260503174505 | 16 | 165 | 6.4 | 16.1 | 0.00 | 0.00 | 0.00 | 46 | 1007.8 |
| 20260503174005 | 16 | 276 | 3.2 | 16.1 | 0.00 | 0.00 | 0.00 | 46 | 1007.9 |
| 20260503173505 | 16 | 268 | 1.6 | 11.3 | 0.00 | 0.00 | 0.00 | 45 | 1007.8 |
| 20260503173005 | 16 | 299 | 1.6 | 14.5 | 0.00 | 0.00 | 0.00 | 46 | 1008.1 |
| 20260503172505 | 15 | 179 | 6.4 | 14.5 | 0.00 | 0.00 | 0.00 | 46 | 1008.1 |
| 20260503172005 | 15 | 212 | 11.3 | 19.3 | 0.00 | 0.00 | 0.00 | 47 | 1008.2 |
| 20260503171605 | 15 | 140 | 3.2 | 19.3 | 0.00 | 0.00 | 0.00 | 48 | 1008.2 |
| 20260503171005 | 15 | 276 | 4.8 | 17.7 | 0.00 | 0.00 | 0.00 | 50 | 1008.5 |
| 20260503170505 | 14 | 196 | 4.8 | 14.5 | 0.00 | 0.00 | 0.00 | 52 | 1008.5 |
| 20260503151004 | 15 | 182 | 9.7 | 22.5 | 0.00 | 0.00 | 0.00 | 46 | 1009.8 |
| 20260503150504 | 14 | 288 | 3.2 | 12.9 | 0.00 | 0.00 | 0.00 | 47 | 1010.0 |
| 20260503131003 | 12 | 169 | 0.0 | 6.4 | 0.00 | 0.00 | 0.00 | 49 | 1010.6 |
| 20260503130503 | 11 | 207 | 0.0 | 12.9 | 0.00 | 0.00 | 0.00 | 50 | 1010.6 |
| 20260503110501 | 8 | 279 | 0.0 | 4.8 | 0.00 | 0.00 | 0.00 | 49 | 1010.7 |
| 20260503090501 | 8 | 213 | 0.0 | 11.3 | 0.00 | 0.00 | 0.00 | 47 | 1011.5 |
| 20260503081500 | 8 | 300 | 0.0 | 4.8 | 0.00 | 0.00 | 0.00 | 48 | 1012.1 |
| 20260503080959 | 8 | 275 | 0.0 | 11.3 | 0.00 | 0.00 | 0.00 | 48 | 1012.1 |
| 20260503080500 | 8 | 166 | 0.0 | 11.3 | 0.00 | 0.00 | 0.00 | 48 | 1012.1 |
| 20260503072459 | 7 | 202 | 0.0 | 4.8 | 0.00 | 0.00 | 0.00 | 51 | 1012.4 |
| 20260503071959 | 7 | 247 | 0.0 | 3.2 | 0.00 | 0.00 | 0.00 | 52 | 1012.5 |
| 20260503071459 | 7 | 246 | 0.0 | 3.2 | 0.00 | 0.00 | 0.00 | 53 | 1012.5 |
| 20260503070959 | 7 | 240 | 0.0 | 3.2 | 0.00 | 0.00 | 0.00 | 53 | 1012.4 |
| 20260503070459 | 7 | 240 | 0.0 | 3.2 | 0.00 | 0.00 | 0.00 | 54 | 1012.6 |
| 20260503054958 | 6 | 193 | 0.0 | 3.2 | 0.00 | 0.00 | 0.00 | 57 | 1013.0 |
| 20260503054458 | 6 | 189 | 0.0 | 4.8 | 0.00 | 0.00 | 0.00 | 58 | 1013.0 |
| 20260503053958 | 6 | 189 | 0.0 | 4.8 | 0.00 | 0.00 | 0.00 | 58 | 1013.1 |
| 20260503053458 | 6 | 186 | 0.0 | 0.0 | 0.00 | 0.00 | 0.00 | 59 | 1013.2 |
| 20260503052958 | 6 | 186 | 0.0 | 0.0 | 0.00 | 0.00 | 0.00 | 59 | 1013.2 |
| 20260503052458 | 6 | 186 | 0.0 | 1.6 | 0.00 | 0.00 | 0.00 | 60 | 1013.1 |
| 20260503052043 | 5 | 186 | 0.0 | 1.6 | 0.00 | 0.00 | 0.00 | 60 | 1013.2 |
| 20260503051458 | 5 | 186 | 0.0 | 4.8 | 0.00 | 0.00 | 0.00 | 60 | 1013.2 |
| 20260503050958 | 5 | 186 | 0.0 | 4.8 | 0.00 | 0.00 | 0.00 | 62 | 1013.2 |
| 20260503050458 | 5 | 202 | 0.0 | 0.0 | 0.00 | 0.00 | 0.00 | 63 | 1013.3 |
| 20260503045958 | 5 | 202 | 0.0 | 0.0 | 0.00 | 0.00 | 0.00 | 64 | 1013.2 |
| 20260503045458 | 5 | 202 | 0.0 | 0.0 | 0.00 | 0.00 | 0.00 | 65 | 1013.3 |
| 20260503044958 | 5 | 202 | 0.0 | 0.0 | 0.00 | 0.00 | 0.00 | 66 | 1013.3 |
| 20260503044457 | 5 | 202 | 0.0 | 0.0 | 0.00 | 0.00 | 0.00 | 67 | 1013.4 |
| 20260503043957 | 5 | 202 | 0.0 | 0.0 | 0.00 | 0.00 | 0.00 | 67 | 1013.3 |
| 20260503043457 | 5 | 202 | 0.0 | 0.0 | 0.00 | 0.00 | 0.00 | 68 | 1013.3 |
| 20260503042957 | 4 | 202 | 0.0 | 0.0 | 0.00 | 0.00 | 0.00 | 69 | 1013.5 |
| 20260503042458 | 4 | 202 | 0.0 | 0.0 | 0.00 | 0.00 | 0.00 | 69 | 1013.5 |
| 20260503041957 | 4 | 202 | 0.0 | 0.0 | 0.00 | 0.00 | 0.00 | 69 | 1013.5 |
| 20260503041457 | 4 | 202 | 0.0 | 1.6 | 0.00 | 0.00 | 0.00 | 70 | 1013.5 |
| 20260503040457 | 4 | 202 | 0.0 | 0.0 | 0.00 | 0.00 | 0.00 | 70 | 1013.6 |
| 20260503035957 | 4 | 202 | 0.0 | 0.0 | 0.00 | 0.00 | 0.00 | 70 | 1013.7 |
| 20260503035457 | 4 | 202 | 0.0 | 0.0 | 0.00 | 0.00 | 0.00 | 70 | 1013.6 |
| 20260503035042 | 4 | 202 | 0.0 | 0.0 | 0.00 | 0.00 | 0.00 | 70 | 1013.7 |
| 20260503034457 | 4 | 202 | 0.0 | 0.0 | 0.00 | 0.00 | 0.00 | 70 | 1013.8 |
| 20260503033957 | 4 | 202 | 0.0 | 0.0 | 0.00 | 0.00 | 0.00 | 69 | 1013.8 |
| 20260503033457 | 4 | 202 | 0.0 | 0.0 | 0.00 | 0.00 | 0.00 | 69 | 1013.8 |
| 20260503032957 | 4 | 202 | 0.0 | 0.0 | 0.00 | 0.00 | 0.00 | 69 | 1013.9 |
| 20260503032457 | 4 | 202 | 0.0 | 0.0 | 0.00 | 0.00 | 0.00 | 69 | 1013.8 |
| 20260503031957 | 4 | 202 | 0.0 | 1.6 | 0.00 | 0.00 | 0.00 | 69 | 1013.9 |
| 20260503031457 | 5 | 202 | 0.0 | 1.6 | 0.00 | 0.00 | 0.00 | 68 | 1014.0 |
| 20260503030957 | 5 | 202 | 0.0 | 1.6 | 0.00 | 0.00 | 0.00 | 68 | 1014.1 |
| 20260503030542 | 5 | 202 | 0.0 | 1.6 | 0.00 | 0.00 | 0.00 | 68 | 1014.1 |
| 20260503025956 | 5 | 202 | 0.0 | 3.2 | 0.00 | 0.00 | 0.00 | 67 | 1014.0 |
| 20260503025456 | 5 | 202 | 0.0 | 3.2 | 0.00 | 0.00 | 0.00 | 67 | 1014.2 |
| 20260503025027 | 5 | 202 | 0.0 | 0.0 | 0.00 | 0.00 | 0.00 | 66 | 1014.3 |
| 20260503024457 | 5 | 202 | 0.0 | 1.6 | 0.00 | 0.00 | 0.00 | 66 | 1014.3 |
| 20260503023956 | 5 | 202 | 0.0 | 1.6 | 0.00 | 0.00 | 0.00 | 66 | 1014.3 |
| 20260503023556 | 5 | 202 | 0.0 | 1.6 | 0.00 | 0.00 | 0.00 | 65 | 1014.3 |
| 20260503022956 | 5 | 202 | 0.0 | 1.6 | 0.00 | 0.00 | 0.00 | 64 | 1014.2 |
| 20260503022456 | 5 | 202 | 0.0 | 3.2 | 0.00 | 0.00 | 0.00 | 64 | 1014.3 |
| 20260503021956 | 6 | 202 | 0.0 | 3.2 | 0.00 | 0.00 | 0.00 | 63 | 1014.2 |
| 20260503021511 | 6 | 205 | 0.0 | 0.0 | 0.00 | 0.00 | 0.00 | 63 | 1014.2 |
| 20260503020956 | 6 | 205 | 0.0 | 1.6 | 0.00 | 0.00 | 0.00 | 62 | 1014.2 |
| 20260503020456 | 6 | 205 | 0.0 | 1.6 | 0.00 | 0.00 | 0.00 | 61 | 1014.2 |
| 20260503020056 | 6 | 205 | 0.0 | 3.2 | 0.00 | 0.00 | 0.00 | 60 | 1014.0 |
| 20260503015456 | 6 | 205 | 0.0 | 6.4 | 0.00 | 0.00 | 0.00 | 59 | 1014.2 |
| 20260503014956 | 6 | 205 | 0.0 | 6.4 | 0.00 | 0.00 | 0.00 | 59 | 1014.1 |
| 20260503014456 | 7 | 204 | 0.0 | 4.8 | 0.00 | 0.00 | 0.00 | 59 | 1014.2 |
| 20260503013956 | 7 | 201 | 0.0 | 4.8 | 0.00 | 0.00 | 0.00 | 59 | 1014.1 |
| 20260503013456 | 7 | 200 | 0.0 | 1.6 | 0.00 | 0.00 | 0.00 | 58 | 1014.0 |
| 20260503013056 | 7 | 199 | 0.0 | 3.2 | 0.00 | 0.00 | 0.00 | 58 | 1014.1 |
| 20260503011957 | 7 | 198 | 0.0 | 3.2 | 0.00 | 0.00 | 0.00 | 56 | 1014.0 |
| 20260503011455 | 7 | 198 | 1.6 | 3.2 | 0.00 | 0.00 | 0.00 | 56 | 1014.1 |
| 20260503010455 | 7 | 190 | 1.6 | 3.2 | 0.00 | 0.00 | 0.00 | 55 | 1014.1 |
| 20260503005955 | 8 | 190 | 0.0 | 4.8 | 0.00 | 0.00 | 0.00 | 54 | 1014.0 |
| 20260503005455 | 8 | 190 | 0.0 | 6.4 | 0.00 | 0.00 | 0.00 | 54 | 1013.9 |
| 20260503004955 | 8 | 193 | 0.0 | 6.4 | 0.00 | 0.00 | 0.00 | 53 | 1013.8 |
| 20260503004455 | 8 | 229 | 6.4 | 6.4 | 0.00 | 0.00 | 0.00 | 53 | 1014.0 |
| 20260503003955 | 8 | 209 | 0.0 | 3.2 | 0.00 | 0.00 | 0.00 | 53 | 1014.1 |
| 20260503003455 | 8 | 209 | 0.0 | 4.8 | 0.00 | 0.00 | 0.00 | 52 | 1014.1 |
| 20260503002955 | 8 | 197 | 0.0 | 8.0 | 0.00 | 0.00 | 0.00 | 51 | 1014.2 |
| 20260503002455 | 9 | 184 | 1.6 | 8.0 | 0.00 | 0.00 | 0.00 | 50 | 1014.1 |
| 20260503002055 | 9 | 180 | 0.0 | 8.0 | 0.00 | 0.00 | 0.00 | 49 | 1014.2 |
| 20260503001455 | 9 | 90 | 0.0 | 6.4 | 0.00 | 0.00 | 0.00 | 48 | 1014.3 |
| 20260503000955 | 9 | 213 | 0.0 | 9.7 | 0.00 | 0.00 | 0.00 | 49 | 1014.2 |
| 20260503000540 | 10 | 213 | 3.2 | 9.7 | 0.00 | 0.00 | 0.00 | 48 | 1014.4 |
| 20260502235955 | 10 | 219 | 0.0 | 6.4 | 0.00 | 0.00 | 0.00 | 48 | 1014.2 |
| 20260502235455 | 10 | 206 | 3.2 | 8.0 | 0.00 | 0.00 | 0.00 | 47 | 1014.3 |
| 20260502234955 | 10 | 222 | 1.6 | 8.0 | 0.00 | 0.00 | 0.00 | 48 | 1014.2 |
| 20260502234455 | 10 | 316 | 0.0 | 8.0 | 0.00 | 0.00 | 0.00 | 47 | 1014.3 |
| 20260502233954 | 10 | 215 | 1.6 | 11.3 | 0.00 | 0.00 | 0.00 | 46 | 1014.3 |
| 20260502233455 | 10 | 217 | 0.0 | 11.3 | 0.00 | 0.00 | 0.00 | 46 | 1014.4 |
| 20260502232954 | 10 | 184 | 4.8 | 8.0 | 0.00 | 0.00 | 0.00 | 45 | 1014.5 |